Cairns, Australia

7:58 AM AEST on July 25, 2017 (GMT +1000)
Cairns International

Weather History for YBCS - April, 2012

Change the Weather History Date:

Monday, April 16, 2012

  Actual Average Record
Temperature  
Mean Temperature 75 °F -  
Max Temperature 78 °F 83 °F 87 °F (1998)
Min Temperature 72 °F 69 °F 66 °F (2011)
Cooling Degree Days 10    
Growing Degree Days 25 (Base 50)    
Moisture  
Dew Point 72 °F    
Average Humidity 92    
Maximum Humidity 100    
Minimum Humidity 78    
Precipitation  
Precipitation 0.67 in 0.21 in - ()
Sea Level Pressure  
Sea Level Pressure 29.90 in    
Wind  
Wind Speed 12 mph ()    
Max Wind Speed 21 mph    
Max Gust Speed -    
Visibility 4.4 miles    
Events Rain    
Averages and records for this station are not official NWS values.
T = Trace of Precipitation, MM = Missing Value Source: Averaged Metar Reports

Daily Weather History Graph

Daily Weather History Graph

Search for Another Location

Airport or City:

Trip Planner

Search our weather history database for the weather conditions in past years. The results will help you decide how hot, cold, wet, or windy it might be!

Date:

Astronomy

Apr. 16, 2012 Rise Set
Actual Time 6:25 AM AEST 6:07 PM AEST
Civil Twilight 6:03 AM AEST 6:29 PM AEST
Nautical Twilight 5:38 AM AEST 6:54 PM AEST
Astronomical Twilight 5:13 AM AEST 7:20 PM AEST
Moon 2:03 AM AEST (4/16) 2:45 PM AEST (4/16)
Length of Visible Light 12h 25m
Length of Day
11h 41m
Waning Crescent, 24% of the Moon is Illuminated
Apr 16
Waning Crescent
Apr 21
New
Apr 29
First Quarter
May 6
Full
May 13
Last Quarter

Hourly Weather History & Observations

Time (AEST) Temp. Dew Point Humidity Pressure Visibility Wind Dir Wind Speed Gust Speed Precip Events Conditions
12:00 AM 74 °F 72 °F 94% 29.93 in 4 mi SSE 15.0 mph - -   Overcast
12:00 AM 75.2 °F 73.4 °F 94% 29.92 in 3.1 mi SSE 15.0 mph - N/A Rain Rain Showers
12:30 AM 73.4 °F 73.4 °F 100% 29.92 in 2.5 mi South 12.7 mph - N/A Rain Rain Showers
12:43 AM 73.4 °F 71.6 °F 94% 29.92 in 4.3 mi SSE 17.3 mph - N/A Rain Light Rain Showers
1:00 AM 74 °F 72 °F 93% 29.92 in - SSE 15.0 mph - -  
1:00 AM 73.4 °F 71.6 °F 94% 29.92 in 2.5 mi SSE 15.0 mph - N/A Rain Rain Showers
1:13 AM 73.4 °F 71.6 °F 94% 29.89 in 4.3 mi SSE 20.7 mph - N/A Rain Light Rain Showers
1:30 AM 73.4 °F 71.6 °F 94% 29.89 in 4.3 mi SSE 15.0 mph - N/A Rain Light Rain Showers
2:00 AM 73.4 °F 71.6 °F 94% 29.89 in 2.5 mi SSE 15.0 mph - N/A Rain Rain Showers
2:30 AM 73.4 °F 71.6 °F 94% 29.89 in 5.0 mi SSE 19.6 mph - N/A   Mostly Cloudy
3:00 AM 73 °F 71 °F 92% 29.88 in 6 mi SSE 12.7 mph - -   Overcast
3:00 AM 73.4 °F 71.6 °F 94% 29.86 in 3.7 mi SSE 12.7 mph - N/A Rain Light Rain Showers
3:30 AM 73.4 °F 71.6 °F 94% 29.86 in 3.1 mi SSE 13.8 mph - N/A Rain Rain Showers
3:44 AM 73.4 °F 71.6 °F 94% 29.86 in 5.0 mi SSE 12.7 mph - N/A Rain Light Rain Showers
4:00 AM 74 °F 72 °F 90% 29.88 in - SSE 10.4 mph - -  
4:00 AM 73.4 °F 71.6 °F 94% 29.86 in 5.0 mi SSE 10.4 mph - N/A   Mostly Cloudy
4:30 AM 73.4 °F 71.6 °F 94% 29.86 in 5.6 mi South 10.4 mph - N/A Rain Light Rain Showers
5:00 AM 73.4 °F 73.4 °F 100% 29.86 in 5.0 mi SSE 12.7 mph - N/A Rain Light Rain Showers
5:30 AM 73.4 °F 71.6 °F 94% 29.86 in 5.0 mi SSE 13.8 mph - N/A   Mostly Cloudy
6:00 AM 73 °F 71 °F 93% 29.88 in 3 mi South 10.4 mph - - Rain Light Rain Showers
6:00 AM 73.4 °F 71.6 °F 94% 29.89 in 6.2 mi South 10.4 mph - N/A Rain Light Rain Showers
6:30 AM 73.4 °F 71.6 °F 94% 29.89 in 6.2 mi South 11.5 mph - N/A   Mostly Cloudy
6:40 AM 73.4 °F 71.6 °F 94% 29.89 in 6.2 mi South 13.8 mph - N/A   Mostly Cloudy
7:00 AM 75 °F 71 °F 82% 29.91 in - South 11.5 mph - -  
7:00 AM 75.2 °F 69.8 °F 83% 29.89 in 2.5 mi South 11.5 mph - N/A Rain Rain Showers
7:24 AM 73.4 °F 71.6 °F 94% 29.92 in 5.0 mi South 13.8 mph - N/A   Mostly Cloudy
7:30 AM 73.4 °F 71.6 °F 94% 29.92 in 4.3 mi South 12.7 mph - N/A   Mostly Cloudy
8:00 AM 73.4 °F 71.6 °F 94% 29.92 in 2.5 mi South 12.7 mph - N/A Rain Light Rain Showers
8:30 AM 73.4 °F 71.6 °F 94% 29.92 in 3.7 mi South 12.7 mph - N/A Rain Light Rain Showers
8:57 AM 75.2 °F 71.6 °F 89% 29.95 in 1.9 mi South 12.7 mph - N/A Rain Light Rain Showers
9:00 AM 74 °F 72 °F 94% 29.95 in - South 12.7 mph - -   Overcast
9:00 AM 73.4 °F 73.4 °F 100% 29.95 in 1.2 mi South 12.7 mph - N/A Rain Rain Showers
9:09 AM 73.4 °F 71.6 °F 94% 29.95 in 4.3 mi South 12.7 mph - N/A Rain Light Rain Showers
9:45 AM 75.2 °F 73.4 °F 94% 29.95 in 6.2 mi South 12.7 mph - N/A   Overcast
10:00 AM 75 °F 73 °F 92% 29.96 in - South 10.4 mph - -  
10:00 AM 75.2 °F 73.4 °F 94% 29.95 in 5.0 mi South 10.4 mph - N/A   Mostly Cloudy
10:30 AM 77.0 °F 73.4 °F 89% 29.92 in 5.0 mi South 11.5 mph - N/A   Mostly Cloudy
10:34 AM 77.0 °F 73.4 °F 89% 29.92 in - North - - N/A   Mostly Cloudy
10:54 AM 75.2 °F 73.4 °F 94% 29.92 in 2.5 mi South 11.5 mph - N/A Rain Light Rain Showers
11:00 AM 75.2 °F 73.4 °F 94% 29.92 in 3.1 mi South 11.5 mph - N/A Rain Light Rain Showers
11:30 AM 75.2 °F 73.4 °F 94% 29.92 in 5.6 mi SSE 13.8 mph - N/A   Overcast
12:00 PM 77 °F 72 °F 81% 29.91 in - South 9.2 mph - -   Overcast
12:00 PM 77.0 °F 71.6 °F 83% 29.89 in 6.2 mi South 9.2 mph - N/A   Mostly Cloudy
12:30 PM 77.0 °F 71.6 °F 83% 29.89 in 5.0 mi South 11.5 mph - N/A   Mostly Cloudy
1:00 PM 77 °F 72 °F 80% 29.88 in - South 10.4 mph - -  
1:00 PM 77.0 °F 71.6 °F 83% 29.86 in 5.6 mi South 10.4 mph - N/A   Mostly Cloudy
1:30 PM 77.0 °F 71.6 °F 83% 29.86 in 6.2 mi SE 15.0 mph - N/A   Mostly Cloudy
2:00 PM 78.8 °F 71.6 °F 78% 29.86 in 3.7 mi SE 9.2 mph - N/A   Mostly Cloudy
2:18 PM 77.0 °F 73.4 °F 89% 29.86 in 5.6 mi East 12.7 mph - N/A Rain Light Rain Showers
2:30 PM 75.2 °F 73.4 °F 94% 29.86 in 5.6 mi East 11.5 mph - N/A   Mostly Cloudy
2:47 PM 75.2 °F 73.4 °F 94% 29.86 in 3.1 mi East 9.2 mph - N/A Rain Light Rain Showers
3:00 PM 75 °F 74 °F 94% 29.86 in 2 mi SE 15.0 mph - - Rain Light Rain Showers
3:00 PM 75.2 °F 73.4 °F 94% 29.86 in 1.9 mi SE 15.0 mph - N/A Rain Light Rain Showers
3:06 PM 75.2 °F 73.4 °F 94% 29.86 in 2.5 mi SE 13.8 mph - N/A Rain Light Rain Showers
3:30 PM 75.2 °F 73.4 °F 94% 29.86 in 6.2 mi South 10.4 mph - N/A   Mostly Cloudy
4:00 PM 75 °F 73 °F 91% 29.87 in - South 8.1 mph - -  
4:00 PM 75.2 °F 73.4 °F 94% 29.86 in 6.2 mi South 8.1 mph - N/A   Mostly Cloudy
4:30 PM 75.2 °F 71.6 °F 89% 29.86 in 6.2 mi South 9.2 mph - N/A   Mostly Cloudy
5:00 PM 77.0 °F 71.6 °F 83% 29.86 in 6.2 mi South 8.1 mph - N/A   Mostly Cloudy
5:30 PM 75.2 °F 71.6 °F 89% 29.86 in 6.2 mi South 8.1 mph - N/A   Mostly Cloudy
6:00 PM 75 °F 72 °F 87% 29.88 in 9 mi South 10.4 mph - -   Overcast
6:00 PM 75.2 °F 71.6 °F 89% 29.86 in 6.2 mi South 10.4 mph - N/A   Mostly Cloudy
6:27 PM 75.2 °F 71.6 °F 89% 29.89 in 3.1 mi SSE 9.2 mph - N/A Rain Light Rain Showers
6:30 PM 75.2 °F 71.6 °F 89% 29.89 in 3.1 mi SSE 8.1 mph - N/A Rain Light Rain Showers
6:48 PM 73.4 °F 73.4 °F 100% 29.89 in 1.6 mi SSE 10.4 mph - N/A Rain Light Rain Showers
7:00 PM 73 °F 71 °F 92% 29.91 in - SSE 13.8 mph - -  
7:00 PM 73.4 °F 71.6 °F 94% 29.89 in 1.2 mi SSE 13.8 mph - N/A Rain Light Rain Showers
7:30 PM 73.4 °F 73.4 °F 100% 29.89 in 2.5 mi SSE 11.5 mph - N/A Rain Light Rain Showers
8:00 PM 73.4 °F 71.6 °F 94% 29.92 in 3.7 mi South 9.2 mph - N/A Rain Light Rain Showers
8:30 PM 73.4 °F 71.6 °F 94% 29.92 in 1.9 mi SSE 9.2 mph - N/A Rain Light Rain Showers
8:50 PM 73.4 °F 71.6 °F 94% 29.92 in 3.7 mi SSE 11.5 mph - N/A Rain Light Rain Showers
9:00 PM 73.4 °F 71.6 °F 94% 29.92 in 3.7 mi SSE 11.5 mph - N/A Rain Light Rain Showers
9:30 PM 73.4 °F 71.6 °F 94% 29.92 in 6.2 mi South 10.4 mph - N/A   Mostly Cloudy
10:00 PM 73 °F 71 °F 93% 29.94 in - SSE 9.2 mph - -  
10:00 PM 73.4 °F 71.6 °F 94% 29.92 in 6.2 mi SSE 9.2 mph - N/A   Mostly Cloudy
10:30 PM 73.4 °F 71.6 °F 94% 29.92 in 6.2 mi SSE 8.1 mph - N/A   Mostly Cloudy
11:00 PM 73.4 °F 71.6 °F 94% 29.92 in 6.2 mi South 5.8 mph - N/A   Mostly Cloudy
11:30 PM 75.2 °F 71.6 °F 89% 29.89 in 6.2 mi SSE 6.9 mph - N/A   Mostly Cloudy